Location: Chugcreek
(42.0500°N, 104.9196°W)
Time: 05:50:35
(UTC+00:00)

Envisat - Visible Passes

Search period start: 24 January 2022 00:00
Search period end: 03 February 2022 00:00
Orbit: 764 x 766 km, 98.2° (Epoch: 23 January)

Date Brightness Start Highest point End Pass type
(mag) Time Alt. Az. Time Alt. Az. Time Alt. Az.
24 Jan 5.6 10:39:17 10° NE 10:42:18 16° E 10:45:18 10° SE visible
24 Jan 2.9 12:16:42 10° N 12:21:44 62° WNW 12:26:43 10° SSW visible
25 Jan 3.4 11:39:50 10° NNE 11:44:53 60° E 11:49:53 10° S visible
25 Jan 4.3 13:20:04 10° NNW 13:23:24 18° WNW 13:26:43 10° WSW visible
26 Jan 6.3 00:37:34 10° WSW 00:39:16 12° W 00:40:57 10° WNW visible
26 Jan 4.9 11:03:32 10° NE 11:07:50 27° E 11:12:06 10° SSE visible
26 Jan 3.5 12:42:15 10° N 12:46:53 36° WNW 12:51:29 10° SW visible
27 Jan 5.9 10:28:39 10° ENE 10:30:34 12° E 10:32:29 10° ESE visible
27 Jan 2.8 12:05:04 10° N 12:10:10 79° WNW 12:15:14 10° SSW visible
27 Jan 4.8 13:47:20 10° NW 13:48:18 11° WNW 13:49:16 10° WNW visible
28 Jan 3.9 11:28:21 10° NNE 11:33:15 47° E 11:38:07 10° S visible
28 Jan 4.1 13:08:05 10° NNW 13:11:56 22° WNW 13:15:46 10° WSW visible
29 Jan 5.2 10:52:17 10° NE 10:56:09 21° E 10:59:58 10° SE visible
29 Jan 3.2 12:30:31 10° N 12:35:21 46° WNW 12:40:10 10° SW visible
30 Jan 3.0 11:53:28 10° NNE 11:58:35 82° ESE 12:03:39 10° SSW visible
30 Jan 4.6 13:34:30 10° NNW 13:36:53 13° WNW 13:39:15 10° W visible
31 Jan 4.3 11:16:54 10° NNE 11:21:36 37° E 11:26:16 10° SSE visible
31 Jan 3.8 12:56:12 10° N 13:00:27 27° WNW 13:04:40 10° WSW visible
01 Feb 5.6 10:41:11 10° NE 10:44:25 17° E 10:47:39 10° SE visible
01 Feb 3.0 12:18:49 10° N 12:23:48 58° WNW 12:28:46 10° SSW visible
02 Feb 3.3 11:41:54 10° NNE 11:46:58 65° E 11:52:00 10° S visible
02 Feb 4.4 13:22:17 10° NNW 13:25:26 17° WNW 13:28:35 10° W visible
